Regional Weather Roundup
Issued by NWS Newport/Morehead, NC

Current Version | Previous Version | Graphics & Text | Print | Product List | Glossary Off
Versions: 1 2 3 4 5 6 7 8 9 10 11 12 13 14 15 16 17 18 19 20 21 22 23 24 25 26 27 28 29 30 31 32 33 34 35 36 37 38 39 40 41 42 43 44 45 46 47 48 49 50

316
ASUS42 KMHX 230913
RWRMHX
WEATHER ROUNDUP FOR EASTERN NORTH CAROLINA
NATIONAL WEATHER SERVICE NEWPORT/MOREHEAD CITY NC
500 AM EDT TUE MAY 23 2017

NOTE: "FAIR" INDICATES FEW OR NO CLOUDS BELOW 12,000 FEET
WITH NO SIGNIFICANT WEATHER AND/OR OBSTRUCTIONS TO VISIBILITY

NCZ015>017-031-032-045>047-102-103-231000-
NORTH COAST

CITY           SKY/WX    TMP DP  RH WIND       PRES   REMARKS
EDENTON        CLOUDY    71  68  90 CALM      29.90F
ELIZABETH CITY CLOUDY    68  68 100 CALM      29.90F
KITTY HAWK     NOT AVBL
MANTEO         CLOUDY    70  69  96 W3        29.91R

$$

NCZ045>047-081-094-103-104-231000-
CENTRAL COAST

CITY           SKY/WX    TMP DP  RH WIND       PRES   REMARKS
FRISCO         CLOUDY    73  70  90 S8        29.90F

$$

NCZ095-097-098-100-101-231000-
SOUTHERN COAST

CITY           SKY/WX    TMP DP  RH WIND       PRES   REMARKS
BEAUFORT       CLOUDY    73  72  96 CALM      29.89F
CEDAR ISLAND   NOT AVBL
JACKSONVILLE   CLOUDY    70  70 100 CALM      29.88F
PINEY ISLAND   FLURRIES N/A N/A N/A CALM      29.89F
WILMINGTON     RAIN      69  68  96 S5        29.89S


$$

NCZ011>013-027>030-043-044-078>080-089-090>093-098-231000-
COASTAL PLAIN

CITY           SKY/WX    TMP DP  RH WIND       PRES   REMARKS
AHOSKIE          N/A     66  65  99 CALM      29.90F
CLINTON        LGT RAIN  67  67 100 CALM      29.88F
ELIZABETHTOWN  HVY RAIN  67  67 100 SE3       29.88S
GOLDSBORO      CLOUDY    68  68 100 CALM      29.87S
GREENVILLE     CLOUDY    68  68 100 CALM      29.91F FOG
HAVELOCK       NOT AVBL
KENANSVILLE    CLOUDY    66  66 100 CALM      29.88F FOG
KINSTON        CLOUDY    68  67  98 S3        29.90S
NEW BERN       LGT RAIN  68  68 100 CALM      29.90F FOG
RICHLANDS      CLOUDY    67  66  97 CALM      29.89F
ROCKY MOUNT    MOCLDY    67  67 100 CALM      29.89S
WASHINGTON     MOCLDY    67  67  97 CALM      29.89F
WHITEVILLE     CLOUDY    67  66  96 SE3       29.87F

$$

AMZ130-135-150-152-154-156-158-170-250-252-270-ANZ085-086-088-633-658-670-231000-
MARINE OBSERVATIONS

STATION/POSITION TIME  TEMP    WIND        PRES    WAVE   SWELL
                       AIR SEA DIR/SP/G            HT/PER HT/PER
                 (UTC) (F)     (DEG/KT/KT) (MB)    (FT/S) (FT/S)
CHESAPEAKE LIGHT NOT AVBL
64 E VA BEACH    0850   64 64   20/  4/  4 1012.9    3/ 8   3/ 8
DUCK             0848   70 64  330/  3/  4 1012.1
2 E DUCK         0900      65                N/A     3/ 8
OREGON INLET     0842   72 74  260/  5/  8 1012.3
13E OREGON INLT  0848      65                N/A     3/ 7   3/ 7
HATTERAS CG      0848   73 75  190/  4/  8 1012.1
DIAMOND BUOY     0850   73 78  190/ 17/ 21 1012.5    4/ 5   2/ 8
CAPE LOOKOUT     0900   73     200/  6/  7 1011.8
BEAUFORT LAB     0848   73 74  180/  3/  5 1011.2
30 SE NEW RVR IN 0808   74 76  170/ 10/ 14 1012.2
30 SE NEW RVR IN 0843      76                N/A     3/ 5
27 SE WRIGHTSVLE 0808   72 76  170/ 14/ 19 1031.6
5 SE WRIGHTSVLE  0808   73 75  170/ 12/ 14 1012.4
225 S CAPE HAT   0850   75 77  180/ 16/ 17 1014.8    3/ 8   2/ 8
41 SE CHARLESTON 0850   77 78  230/ 16/ 19 1010.9    5/ 6   2/ 8

$$




USA.gov is the U.S. government's official web portal to all federal, state and local government web resources and services.